Time,TemperatureF,DewpointF,PressureIn,WindDirection,WindDirectionDegrees,WindSpeedMPH,WindSpeedGustMPH,Humidity,HourlyPrecipIn,Conditions,Clouds,dailyrainin,SoftwareType,DateUTC
2013-03-27 00:02:00,46.0,45.0,29.98,WNW,284,0.0,0.0,97,0.00,,,0.02,,2013-03-27 07:02:00,
2013-03-27 00:12:00,46.0,45.0,29.98,WNW,284,0.0,0.0,97,0.00,,,0.02,,2013-03-27 07:12:00,
2013-03-27 00:22:00,46.0,45.0,29.98,WNW,284,0.0,0.0,97,0.00,,,0.02,,2013-03-27 07:22:00,
2013-03-27 00:32:00,46.0,45.0,29.98,WNW,284,0.0,0.0,97,0.00,,,0.02,,2013-03-27 07:32:00,
2013-03-27 00:42:00,46.0,45.0,29.98,WNW,284,0.0,0.0,97,0.00,,,0.02,,2013-03-27 07:42:00,
2013-03-27 00:53:00,46.0,45.0,29.98,WNW,284,0.0,0.0,97,0.00,,,0.02,,2013-03-27 07:53:00,
2013-03-27 01:02:00,46.0,45.0,29.98,WNW,284,0.0,0.0,98,0.00,,,0.02,,2013-03-27 08:02:00,
2013-03-27 01:11:00,46.0,45.0,29.98,WNW,284,0.0,0.0,98,0.00,,,0.02,,2013-03-27 08:11:00,
2013-03-27 01:22:00,46.0,45.0,29.98,WNW,284,0.0,0.0,98,0.00,,,0.02,,2013-03-27 08:22:00,
2013-03-27 01:32:00,46.0,45.0,29.98,WNW,284,0.0,0.0,98,0.00,,,0.02,,2013-03-27 08:32:00,
2013-03-27 01:42:00,46.0,45.0,29.98,WNW,284,0.0,0.0,98,0.00,,,0.02,,2013-03-27 08:42:00,
2013-03-27 01:52:00,46.0,45.0,29.98,WNW,284,0.0,0.0,98,0.00,,,0.02,,2013-03-27 08:52:00,
2013-03-27 02:01:00,46.0,45.0,29.98,WNW,284,0.0,0.0,98,0.00,,,0.02,,2013-03-27 09:01:00,
2013-03-27 02:11:00,46.0,45.0,29.98,WNW,284,0.0,0.0,98,0.00,,,0.02,,2013-03-27 09:11:00,
2013-03-27 02:22:00,46.0,45.0,29.97,WNW,284,0.0,0.0,98,0.00,,,0.02,,2013-03-27 09:22:00,
2013-03-27 02:32:00,46.0,45.0,29.97,WNW,284,0.0,0.0,98,0.00,,,0.02,,2013-03-27 09:32:00,
2013-03-27 02:42:00,46.0,45.0,29.97,WNW,284,0.0,0.0,98,0.00,,,0.02,,2013-03-27 09:42:00,
2013-03-27 02:52:00,46.0,45.0,29.96,WNW,284,0.0,0.0,98,0.00,,,0.02,,2013-03-27 09:52:00,
2013-03-27 03:02:00,46.0,45.0,29.96,WNW,284,0.0,0.0,98,0.00,,,0.02,,2013-03-27 10:02:00,
2013-03-27 03:12:00,46.0,45.0,29.96,WNW,284,0.0,0.0,98,0.00,,,0.02,,2013-03-27 10:12:00,
2013-03-27 03:22:00,46.0,45.0,29.96,WNW,284,0.0,0.0,98,0.00,,,0.02,,2013-03-27 10:22:00,
2013-03-27 03:32:00,46.0,45.0,29.96,WNW,284,0.0,0.0,98,0.00,,,0.02,,2013-03-27 10:32:00,
2013-03-27 03:42:00,46.0,45.0,29.96,WNW,284,0.0,0.0,98,0.00,,,0.02,,2013-03-27 10:42:00,
2013-03-27 03:52:00,46.0,45.0,29.95,WNW,284,0.0,0.0,98,0.00,,,0.02,,2013-03-27 10:52:00,
2013-03-27 04:02:00,46.0,45.0,29.95,WNW,284,0.0,0.0,98,0.00,,,0.02,,2013-03-27 11:02:00,
2013-03-27 04:11:00,46.0,45.0,29.95,WNW,284,0.0,0.0,98,0.00,,,0.02,,2013-03-27 11:11:00,
2013-03-27 04:22:00,46.0,45.0,29.95,WNW,284,0.0,0.0,98,0.00,,,0.02,,2013-03-27 11:22:00,
2013-03-27 04:32:00,46.0,45.0,29.95,WNW,284,0.0,0.0,98,0.00,,,0.02,,2013-03-27 11:32:00,
2013-03-27 04:42:00,46.0,45.0,29.95,WNW,284,0.0,0.0,98,0.00,,,0.02,,2013-03-27 11:42:00,
2013-03-27 04:52:00,46.0,45.0,29.95,WNW,284,0.0,0.0,98,0.00,,,0.02,,2013-03-27 11:52:00,
2013-03-27 05:11:00,46.0,45.0,29.95,WNW,284,0.0,0.0,98,0.00,,,0.02,,2013-03-27 12:11:00,
2013-03-27 05:22:00,46.0,45.0,29.95,WNW,284,0.0,0.0,98,0.00,,,0.02,,2013-03-27 12:22:00,
2013-03-27 05:32:00,46.0,45.0,29.95,WNW,284,0.0,0.0,98,0.00,,,0.02,,2013-03-27 12:32:00,
2013-03-27 05:42:00,46.0,45.0,29.95,WNW,284,0.0,0.0,98,0.00,,,0.02,,2013-03-27 12:42:00,
2013-03-27 05:51:00,46.0,45.0,29.95,WNW,284,0.0,0.0,98,0.01,,,0.03,,2013-03-27 12:51:00,
2013-03-27 06:02:00,45.0,44.0,29.94,WNW,284,0.0,0.0,98,0.01,,,0.03,,2013-03-27 13:02:00,
2013-03-27 06:11:00,45.0,44.0,29.94,WNW,284,0.0,0.0,98,0.01,,,0.03,,2013-03-27 13:11:00,
2013-03-27 06:22:00,45.0,44.0,29.95,WNW,284,0.0,0.0,98,0.01,,,0.03,,2013-03-27 13:22:00,
2013-03-27 06:32:00,45.0,44.0,29.95,WNW,284,0.0,0.0,98,0.01,,,0.03,,2013-03-27 13:32:00,
2013-03-27 06:42:00,45.0,44.0,29.95,WNW,284,0.0,0.0,98,0.01,,,0.03,,2013-03-27 13:42:00,
2013-03-27 06:52:00,45.0,44.0,29.95,WNW,284,0.0,0.0,98,0.00,,,0.03,,2013-03-27 13:52:00,
2013-03-27 07:02:00,44.0,43.0,29.95,WNW,284,0.0,0.0,98,0.00,,,0.03,,2013-03-27 14:02:00,
2013-03-27 07:11:00,44.0,43.0,29.95,WNW,284,0.0,0.0,98,0.00,,,0.03,,2013-03-27 14:11:00,
2013-03-27 07:21:00,44.0,43.0,29.95,WNW,284,0.0,0.0,98,0.00,,,0.03,,2013-03-27 14:21:00,
2013-03-27 07:32:00,44.0,43.0,29.95,WNW,284,0.0,0.0,98,0.00,,,0.03,,2013-03-27 14:32:00,
2013-03-27 07:42:00,44.0,43.0,29.95,WNW,284,0.0,0.0,98,0.00,,,0.03,,2013-03-27 14:42:00,
2013-03-27 07:52:00,45.0,44.0,29.95,WNW,284,0.0,0.0,98,0.00,,,0.03,,2013-03-27 14:52:00,
2013-03-27 08:02:00,45.0,44.0,29.95,WNW,284,0.0,0.0,98,0.00,,,0.03,,2013-03-27 15:02:00,
2013-03-27 08:11:00,45.0,44.0,29.95,WNW,284,0.0,0.0,98,0.00,,,0.03,,2013-03-27 15:11:00,
2013-03-27 08:22:00,45.0,44.0,29.95,WNW,284,0.0,0.0,98,0.00,,,0.03,,2013-03-27 15:22:00,
2013-03-27 08:32:00,45.0,45.0,29.95,WNW,284,0.0,0.0,99,0.00,,,0.03,,2013-03-27 15:32:00,
2013-03-27 08:42:00,45.0,45.0,29.95,WNW,284,0.0,0.0,99,0.00,,,0.03,,2013-03-27 15:42:00,
2013-03-27 08:52:00,46.0,46.0,29.95,WNW,284,0.0,0.0,99,0.00,,,0.03,,2013-03-27 15:52:00,
2013-03-27 09:02:00,46.0,46.0,29.95,WNW,284,0.0,0.0,99,0.00,,,0.03,,2013-03-27 16:02:00,
2013-03-27 09:12:00,46.0,46.0,29.95,WNW,284,0.0,0.0,99,0.00,,,0.03,,2013-03-27 16:12:00,
2013-03-27 09:22:00,46.0,46.0,29.95,WNW,284,0.0,0.0,99,0.00,,,0.03,,2013-03-27 16:22:00,
2013-03-27 09:32:00,46.0,45.0,29.95,WNW,284,0.0,0.0,98,0.00,,,0.03,,2013-03-27 16:32:00,
2013-03-27 09:42:00,46.0,45.0,29.95,WNW,284,0.0,0.0,98,0.00,,,0.03,,2013-03-27 16:42:00,
2013-03-27 09:52:00,47.0,46.0,29.96,WNW,284,0.0,0.0,98,0.00,,,0.03,,2013-03-27 16:52:00,
2013-03-27 10:02:00,47.0,46.0,29.96,WNW,284,0.0,0.0,98,0.00,,,0.03,,2013-03-27 17:02:00,
2013-03-27 10:11:00,47.0,46.0,29.96,WNW,284,0.0,0.0,98,0.00,,,0.03,,2013-03-27 17:11:00,
2013-03-27 10:22:00,48.0,47.0,29.95,WNW,285,0.0,0.0,95,0.00,,,0.03,,2013-03-27 17:22:00,
2013-03-27 10:32:00,49.0,47.0,29.95,WNW,285,0.0,0.0,92,0.00,,,0.03,,2013-03-27 17:32:00,
2013-03-27 10:44:00,49.0,47.0,29.95,WNW,285,0.0,0.0,92,0.00,,,0.03,,2013-03-27 17:44:00,
2013-03-27 10:52:00,49.0,47.0,29.96,NNE,20,0.0,0.0,93,0.00,,,0.03,,2013-03-27 17:52:00,
2013-03-27 11:02:00,50.0,48.0,29.96,WNW,293,0.0,0.0,92,0.00,,,0.03,,2013-03-27 18:02:00,
2013-03-27 11:12:00,50.0,48.0,29.96,WNW,293,0.0,0.0,92,0.00,,,0.03,,2013-03-27 18:12:00,
2013-03-27 11:22:00,50.0,47.0,29.96,SW,224,0.0,0.0,91,0.00,,,0.03,,2013-03-27 18:22:00,
2013-03-27 11:32:00,50.0,47.0,29.96,SW,224,0.0,0.0,91,0.00,,,0.03,,2013-03-27 18:32:00,
2013-03-27 11:42:00,50.0,47.0,29.96,SW,224,0.0,0.0,91,0.00,,,0.03,,2013-03-27 18:42:00,
2013-03-27 11:52:00,52.0,49.0,29.96,NE,51,0.0,0.0,88,0.00,,,0.03,,2013-03-27 18:52:00,
2013-03-27 12:02:00,52.0,47.0,29.96,SSW,208,0.0,1.0,83,0.00,,,0.03,,2013-03-27 19:02:00,
2013-03-27 12:12:00,52.0,47.0,29.96,SSW,208,0.0,1.0,83,0.00,,,0.03,,2013-03-27 19:12:00,
2013-03-27 12:21:00,53.0,48.0,29.96,North,1,0.0,0.0,82,0.00,,,0.03,,2013-03-27 19:21:00,
2013-03-27 12:32:00,55.0,48.0,29.96,SW,221,0.0,2.0,76,0.00,,,0.03,,2013-03-27 19:32:00,
2013-03-27 12:42:00,55.0,48.0,29.96,SW,221,0.0,2.0,76,0.00,,,0.03,,2013-03-27 19:42:00,
2013-03-27 12:52:00,56.0,49.0,29.95,NNW,345,0.0,1.0,78,0.00,,,0.03,,2013-03-27 19:52:00,
2013-03-27 13:02:00,56.0,47.0,29.95,WSW,238,0.0,3.0,71,0.00,,,0.03,,2013-03-27 20:02:00,
2013-03-27 13:11:00,56.0,47.0,29.95,WSW,238,0.0,3.0,71,0.00,,,0.03,,2013-03-27 20:11:00,
2013-03-27 13:22:00,57.0,47.0,29.95,SSE,160,0.0,0.0,70,0.00,,,0.03,,2013-03-27 20:22:00,
2013-03-27 13:32:00,59.0,47.0,29.94,SW,231,0.0,4.0,65,0.00,,,0.03,,2013-03-27 20:32:00,
2013-03-27 13:42:00,59.0,47.0,29.94,SW,231,0.0,4.0,65,0.00,,,0.03,,2013-03-27 20:42:00,
2013-03-27 13:52:00,61.0,47.0,29.94,SSE,162,0.0,3.0,59,0.00,,,0.03,,2013-03-27 20:52:00,
2013-03-27 14:02:00,61.0,44.0,29.94,South,187,0.0,4.0,53,0.00,,,0.03,,2013-03-27 21:02:00,
2013-03-27 14:12:00,61.0,44.0,29.94,South,187,0.0,4.0,53,0.00,,,0.03,,2013-03-27 21:12:00,
2013-03-27 14:22:00,60.0,43.0,29.94,WSW,242,0.0,1.0,53,0.00,,,0.03,,2013-03-27 21:22:00,
2013-03-27 14:32:00,60.0,44.0,29.93,WSW,247,0.0,3.0,56,0.00,,,0.03,,2013-03-27 21:32:00,
2013-03-27 14:42:00,60.0,44.0,29.93,WSW,247,0.0,3.0,56,0.00,,,0.03,,2013-03-27 21:42:00,
2013-03-27 14:52:00,62.0,43.0,29.93,WSW,240,0.0,5.0,49,0.00,,,0.03,,2013-03-27 21:52:00,
2013-03-27 15:02:00,62.0,43.0,29.93,SW,220,0.0,2.0,49,0.00,,,0.03,,2013-03-27 22:02:00,
2013-03-27 15:12:00,62.0,43.0,29.93,SW,220,0.0,2.0,49,0.00,,,0.03,,2013-03-27 22:12:00,
2013-03-27 15:23:00,63.0,43.0,29.93,ESE,117,0.0,2.0,48,0.00,,,0.03,,2013-03-27 22:23:00,
2013-03-27 15:32:00,63.0,44.0,29.93,WSW,252,0.0,3.0,50,0.00,,,0.03,,2013-03-27 22:32:00,
2013-03-27 15:42:00,63.0,44.0,29.93,WSW,252,0.0,3.0,50,0.00,,,0.03,,2013-03-27 22:42:00,
2013-03-27 15:52:00,63.0,42.0,29.93,WSW,257,0.0,2.0,47,0.00,,,0.03,,2013-03-27 22:52:00,
2013-03-27 16:02:00,63.0,41.0,29.93,WSW,255,0.0,3.0,44,0.00,,,0.03,,2013-03-27 23:02:00,
2013-03-27 16:11:00,63.0,41.0,29.93,WSW,255,0.0,3.0,44,0.00,,,0.03,,2013-03-27 23:11:00,
2013-03-27 16:22:00,62.0,43.0,29.93,WNW,295,0.0,3.0,49,0.00,,,0.03,,2013-03-27 23:22:00,
2013-03-27 16:32:00,62.0,40.0,29.93,WSW,253,0.0,0.0,45,0.00,,,0.03,,2013-03-27 23:32:00,
2013-03-27 16:42:00,62.0,40.0,29.93,WSW,253,0.0,0.0,45,0.00,,,0.03,,2013-03-27 23:42:00,
2013-03-27 16:51:00,62.0,40.0,29.93,WNW,295,0.0,0.0,45,0.00,,,0.03,,2013-03-27 23:51:00,
2013-03-27 17:02:00,61.0,41.0,29.93,SW,225,0.0,0.0,47,0.00,,,0.03,,2013-03-28 00:02:00,
2013-03-27 17:11:00,61.0,41.0,29.93,SW,225,0.0,0.0,47,0.00,,,0.03,,2013-03-28 00:11:00,
2013-03-27 17:22:00,61.0,40.0,29.93,NW,304,0.0,0.0,45,0.00,,,0.03,,2013-03-28 00:22:00,
2013-03-27 17:32:00,61.0,41.0,29.92,NW,314,0.0,0.0,47,0.00,,,0.03,,2013-03-28 00:32:00,
2013-03-27 17:42:00,61.0,41.0,29.92,NW,314,0.0,0.0,47,0.00,,,0.03,,2013-03-28 00:42:00,
2013-03-27 17:52:00,60.0,40.0,29.92,WNW,296,0.0,3.0,47,0.00,,,0.03,,2013-03-28 00:52:00,
2013-03-27 18:01:00,60.0,41.0,29.92,North,7,0.0,3.0,49,0.00,,,0.03,,2013-03-28 01:01:00,
2013-03-27 18:11:00,60.0,41.0,29.92,North,7,0.0,3.0,49,0.00,,,0.03,,2013-03-28 01:11:00,
2013-03-27 18:22:00,60.0,45.0,29.92,West,259,0.0,3.0,57,0.00,,,0.03,,2013-03-28 01:22:00,
2013-03-27 18:32:00,58.0,45.0,29.93,NE,51,0.0,0.0,61,0.00,,,0.03,,2013-03-28 01:32:00,
2013-03-27 18:42:00,58.0,45.0,29.93,NE,51,0.0,0.0,61,0.00,,,0.03,,2013-03-28 01:42:00,
2013-03-27 18:52:00,57.0,45.0,29.93,East,80,0.0,0.0,65,0.00,,,0.03,,2013-03-28 01:52:00,
2013-03-27 19:02:00,57.0,47.0,29.93,NW,306,0.0,0.0,69,0.00,,,0.03,,2013-03-28 02:02:00,
2013-03-27 19:12:00,57.0,47.0,29.93,NW,306,0.0,0.0,69,0.00,,,0.03,,2013-03-28 02:12:00,
2013-03-27 19:22:00,56.0,46.0,29.93,NNW,345,0.0,2.0,69,0.00,,,0.03,,2013-03-28 02:22:00,
2013-03-27 19:32:00,55.0,46.0,29.93,WNW,287,0.0,2.0,71,0.00,,,0.03,,2013-03-28 02:32:00,
2013-03-27 19:42:00,55.0,46.0,29.93,WNW,287,0.0,2.0,71,0.00,,,0.03,,2013-03-28 02:42:00,
2013-03-27 19:52:00,55.0,46.0,29.93,WNW,287,0.0,2.0,71,0.00,,,0.03,,2013-03-28 02:52:00,
2013-03-27 20:02:00,54.0,47.0,29.94,WNW,294,0.0,0.0,76,0.00,,,0.03,,2013-03-28 03:02:00,
2013-03-27 20:12:00,54.0,47.0,29.94,WNW,294,0.0,0.0,76,0.00,,,0.03,,2013-03-28 03:12:00,
2013-03-27 20:22:00,53.0,46.0,29.94,North,356,0.0,3.0,77,0.00,,,0.03,,2013-03-28 03:22:00,
2013-03-27 20:33:00,53.0,47.0,29.94,WSW,254,0.0,3.0,79,0.00,,,0.03,,2013-03-28 03:33:00,
2013-03-27 20:42:00,53.0,47.0,29.94,WSW,254,0.0,3.0,79,0.00,,,0.03,,2013-03-28 03:42:00,
2013-03-27 20:52:00,53.0,47.0,29.95,WNW,286,0.0,3.0,79,0.00,,,0.03,,2013-03-28 03:52:00,
2013-03-27 21:02:00,52.0,46.0,29.96,NW,321,0.0,2.0,79,0.00,,,0.03,,2013-03-28 04:02:00,
2013-03-27 21:12:00,52.0,46.0,29.96,NW,321,0.0,2.0,79,0.00,,,0.03,,2013-03-28 04:12:00,
2013-03-27 21:22:00,52.0,46.0,29.96,WNW,296,0.0,3.0,81,0.00,,,0.03,,2013-03-28 04:22:00,
2013-03-27 21:32:00,51.0,46.0,29.96,West,281,0.0,0.0,82,0.00,,,0.03,,2013-03-28 04:32:00,
2013-03-27 21:42:00,51.0,46.0,29.96,West,281,0.0,0.0,82,0.00,,,0.03,,2013-03-28 04:42:00,
2013-03-27 21:52:00,51.0,46.0,29.97,West,281,0.0,0.0,84,0.00,,,0.03,,2013-03-28 04:52:00,
2013-03-27 22:02:00,51.0,47.0,29.98,WNW,290,0.0,0.0,85,0.00,,,0.03,,2013-03-28 05:02:00,
2013-03-27 22:12:00,51.0,47.0,29.98,WNW,290,0.0,0.0,85,0.00,,,0.03,,2013-03-28 05:12:00,
2013-03-27 22:22:00,50.0,47.0,29.97,NW,305,0.0,4.0,88,0.00,,,0.03,,2013-03-28 05:22:00,
2013-03-27 22:32:00,50.0,47.0,29.97,ENE,64,0.0,0.0,89,0.00,,,0.01,,2013-03-28 05:32:00,
2013-03-27 22:42:00,50.0,47.0,29.97,ENE,64,0.0,0.0,89,0.00,,,0.01,,2013-03-28 05:42:00,
2013-03-27 22:52:00,50.0,47.0,29.98,NW,310,0.0,3.0,88,0.00,,,0.01,,2013-03-28 05:52:00,
2013-03-27 23:02:00,50.0,47.0,29.98,NE,46,0.0,0.0,89,0.00,,,0.01,,2013-03-28 06:02:00,
2013-03-27 23:12:00,50.0,47.0,29.98,NE,46,0.0,0.0,89,0.00,,,0.01,,2013-03-28 06:12:00,
2013-03-27 23:22:00,49.0,46.0,29.98,WNW,293,0.0,2.0,88,0.00,,,0.01,,2013-03-28 06:22:00,
2013-03-27 23:32:00,49.0,46.0,29.98,WNW,285,0.0,3.0,88,0.00,,,0.01,,2013-03-28 06:32:00,
2013-03-27 23:42:00,49.0,46.0,29.98,WNW,285,0.0,3.0,88,0.00,,,0.01,,2013-03-28 06:42:00,
2013-03-27 23:52:00,49.0,46.0,29.98,West,280,0.0,0.0,88,0.00,,,0.01,,2013-03-28 06:52:00,